[[{"header":{"parameterUnit":"m.s-1","parameterCategory":1,"la1":30.2991,"la2":30.254,"lo1":-89.0895,"lo2":-89.0444,"dy":0.0017,"dx":0.0017,"nx":28,"ny":28,"refTime":"2024-07-26T21:00:00:Z","depth":0,"parameterNumber":2,"parameterNumberName":"U-component_of_WINDS"},"data":[0,0,0,0,0,0,0,0,0,0,0,0,0,0,0,0,0,0,0,0,0,0,0,0,0,0,0,0,0,0,0,0,0,0,0,0,0,0,0,0,0,0,0,0,0,0,0,0,0,0,0,0,0,0,0,0,0,0,1.0812,1.0814,0,1.0921,1.0922,1.0924,1.0972,1.0972,1.0972,1.0972,1.1086,1.1089,1.1092,0,0,0,0,0,0,0,0,0,0,0,0,0,1.0649,1.0652,1.0812,1.0814,1.0815,1.0921,1.0922,1.0924,1.0972,1.0972,1.0972,1.0972,1.1085,1.1089,1.1093,0,0,0,0,0,0,0,0,0,0,0,0,0,1.0735,1.0653,1.0812,1.0852,1.0856,1.0921,1.0922,1.0924,1.0972,1.0972,1.0972,1.0972,1.1084,1.1088,1.1093,1.1127,0,0,1.1108,1.111,0,0,0,0,0,0,0,0,1.073,1.0741,1.0845,1.0849,1.0854,1.0933,1.0907,1.0992,1.0972,1.0928,1.0972,1.0971,1.1036,1.1044,1.1065,1.1132,1.1137,1.1108,1.1111,1.1113,1.1114,0,0,0,0,0,0,0,1.0724,1.0737,1.0856,1.0846,1.0852,1.0865,1.0877,1.0923,1.0982,1.0932,1.0936,1.0948,1.1038,1.106,1.1068,1.1139,1.1108,1.1112,1.1115,1.1117,1.1239,1.124,0,0,0,0,0,0,1.0711,1.0731,1.0852,1.0859,1.079,1.0868,1.0882,1.0908,1.0982,1.0992,1.0948,1.095,1.1052,1.1063,1.1072,1.1117,1.1113,1.1118,1.112,1.1239,1.1239,1.124,0,0,0,0,0,0,1.0708,1.0722,1.0848,1.0796,1.0813,1.0871,1.09,1.091,1.0933,1.0993,1.1004,1.096,1.1053,1.1066,1.1113,1.1122,1.112,1.1124,1.1238,1.1239,1.124,1.1206,0,0,0,0,0,0,1.0703,1.072,1.0733,1.0796,1.0816,1.0885,1.0901,1.0912,1.094,1.0944,1.1007,1.1018,1.1054,1.1105,1.1118,1.1128,1.1128,1.1238,1.1239,1.1239,1.1206,1.1205,1.1204,0,0,0,0,0,1.0697,1.072,1.0733,1.0747,1.0833,1.0886,1.0897,1.0937,1.0941,1.0955,1.0994,1.1016,1.1118,1.111,1.1124,1.1136,1.1238,1.1239,1.1239,1.1207,1.1205,1.1204,0,0,0,0,0,0,1.0657,1.0729,1.0744,1.0788,1.083,1.0894,1.0912,1.0934,1.0976,1.0978,1.1026,1.104,1.1083,1.1114,1.1103,1.1173,1.118,1.1184,1.1151,1.115,1.1148,1.114,1.1132,0,0,0,0,0,1.0653,1.0689,1.075,1.0783,1.0803,1.0854,1.0878,1.0905,1.0951,1.097,1.1012,1.1057,1.1099,1.1126,1.1168,1.1211,1.1226,1.1226,1.1225,1.1224,1.1227,1.1252,1.1253,1.1243,1.1243,1.1243,0,0,1.0646,1.0689,1.0709,1.0776,1.0812,1.0849,1.0869,1.0907,1.0935,1.0976,1.1023,1.1055,1.1108,1.1153,1.1175,1.1181,1.1233,1.1225,1.1223,1.1227,1.1253,1.1254,1.1254,1.1243,1.1243,1.1243,0,0,1.0651,1.0688,1.0719,1.0754,1.0808,1.0841,1.0849,1.0909,1.0932,1.0979,1.101,1.1045,1.1117,1.1153,1.1181,1.12,1.1223,1.1213,1.1207,1.1231,1.1232,1.1233,1.124,1.1242,1.1215,1.1215,1.1215,0,1.0636,1.0692,1.0733,1.0769,1.0798,1.0835,1.0868,1.09,1.0965,1.0984,1.0989,1.108,1.1118,1.1172,1.1177,1.1198,1.1208,1.1206,1.1228,1.1229,1.1231,1.1238,1.1241,1.1214,1.1214,1.1214,1.1214,0,1.0671,1.0709,1.0728,1.0789,1.082,1.0854,1.0901,1.0927,1.0951,1.0984,1.1032,1.1079,1.1132,1.1146,1.1171,1.1204,1.1206,1.1218,1.1227,1.123,1.1237,1.1241,1.1212,1.1212,1.1213,1.1213,0,0,1.0655,1.0737,1.0743,1.0771,1.0833,1.0864,1.09,1.0951,1.0972,1.1016,1.1048,1.1107,1.112,1.1151,1.118,1.1201,1.1213,1.1212,1.1213,1.121,1.1253,1.1243,1.1246,1.1228,1.1228,1.1229,1.1249,0,1.0669,1.0735,1.0772,1.0823,1.0859,1.0895,1.0927,1.0968,1.1,1.1036,1.1072,1.1113,1.1126,1.1146,1.1168,1.1207,1.1222,1.1206,1.1259,1.126,1.1245,1.125,1.124,1.1256,1.1252,1.1252,1.1253,0,1.0695,1.0737,1.079,1.0848,1.0865,1.0892,1.0941,1.0975,1.1023,1.1045,1.108,1.1108,1.1149,1.1153,1.121,1.1198,1.1222,1.1244,1.1246,1.1253,1.1257,1.1257,1.1262,1.1264,1.1258,1.1258,1.1257,0,1.0678,1.0748,1.0789,1.0812,1.088,1.0899,1.0928,1.0976,1.1004,1.1047,1.1066,1.1113,1.1139,1.1176,1.1216,1.1216,1.1269,1.1277,1.1289,1.1288,1.1299,1.1298,1.1308,1.1313,1.1313,1.1313,1.1313,0,1.0691,1.0722,1.0783,1.0808,1.0845,1.0888,1.0923,1.0956,1.0998,1.1031,1.1064,1.1095,1.1146,1.1183,1.1215,1.1257,1.1269,1.1288,1.1296,1.1285,1.1283,1.1302,1.1302,1.1314,1.1314,1.1314,1.1314,0,1.0679,1.072,1.0768,1.0828,1.0844,1.0868,1.092,1.0946,1.098,1.1021,1.1033,1.1086,1.1131,1.1175,1.1235,1.1257,1.1299,1.131,1.1282,1.1287,1.1296,1.1295,1.132,1.1325,1.1326,1.1326,1.1326,0,1.0684,1.0709,1.0772,1.0796,1.0824,1.0862,1.0891,1.0934,1.0962,1.1018,1.1038,1.1085,1.1126,1.1196,1.124,1.1287,1.13,1.1305,1.1307,1.1295,1.13,1.1298,1.1301,1.1304,1.1304,1.1303,1.1303,0,1.0689,1.0708,1.0748,1.0794,1.0827,1.0865,1.0905,1.0923,1.0974,1.1004,1.105,1.1081,1.1143,1.119,1.1241,1.1273,1.1297,1.1302,1.1307,1.1297,1.128,1.1289,1.128,1.1302,1.1302,1.1302,1.1302,1.1302,1.0687,1.071,1.0758,1.0801,1.0835,1.0872,1.0899,1.0936,1.0975,1.1027,1.1051,1.1097,1.1145,1.1216,1.1247,1.1285,1.1291,1.1298,1.13,1.1302,1.1299,1.1273,1.1294,1.1294,1.1294,1.1294,1.1295,0,1.0694,1.0726,1.0765,1.0819,1.0853,1.0871,1.0917,1.0944,1.0984,1.1026,1.1064,1.1117,1.1163,1.121,1.1258,1.1279,1.1291,1.129,1.1289,1.1296,1.1291,1.1282,1.1279,1.1279,1.1279,1.1279,1.1279,1.1279,1.0702,1.0743,1.0768,1.0827,1.086,1.0905,1.0929,1.0963,1.0997,1.1054,1.1092,1.1122,1.1166,1.1218,1.126,1.1273,1.129,1.1285,1.1301,1.1296,1.1297,1.1298,1.1289,1.1289,1.1289,1.1304,1.1304,1.1304]},{"header":{"parameterUnit":"m.s-1","parameterCategory":1,"la1":30.2991,"la2":30.254,"lo1":-89.0895,"lo2":-89.0444,"dy":0.0017,"dx":0.0017,"nx":28,"ny":28,"refTime":"2024-07-26T21:00:00:Z","depth":0,"parameterNumber":3,"parameterNumberName":"V-component_of_WINDS"},"data":[0,0,0,0,0,0,0,0,0,0,0,0,0,0,0,0,0,0,0,0,0,0,0,0,0,0,0,0,0,0,0,0,0,0,0,0,0,0,0,0,0,0,0,0,0,0,0,0,0,0,0,0,0,0,0,0,0,0,4.6307,4.6307,0,4.6281,4.6281,4.628,4.625,4.6249,4.6249,4.6249,4.6221,4.6221,4.6221,0,0,0,0,0,0,0,0,0,0,0,0,0,4.633,4.633,4.6307,4.6307,4.6306,4.6281,4.628,4.628,4.625,4.6249,4.6249,4.6248,4.6221,4.6221,4.6221,0,0,0,0,0,0,0,0,0,0,0,0,0,4.6314,4.633,4.6307,4.6288,4.6286,4.6281,4.628,4.628,4.625,4.6249,4.6249,4.6248,4.6221,4.6221,4.6221,4.6231,0,0,4.6219,4.6219,0,0,0,0,0,0,0,0,4.6315,4.6313,4.6291,4.629,4.6287,4.6268,4.6279,4.6264,4.625,4.6264,4.6249,4.6248,4.6237,4.6235,4.6232,4.623,4.6229,4.6219,4.6219,4.6219,4.6218,0,0,0,0,0,0,0,4.6316,4.6314,4.6297,4.6291,4.6289,4.6281,4.6278,4.6276,4.6255,4.6263,4.626,4.6258,4.6236,4.6233,4.6231,4.6228,4.6219,4.6219,4.6218,4.6218,4.6233,4.6234,0,0,0,0,0,0,4.632,4.6315,4.6297,4.6296,4.63,4.6281,4.6278,4.6275,4.6255,4.6251,4.6258,4.6256,4.6234,4.6232,4.623,4.6241,4.6219,4.6218,4.6218,4.6233,4.6233,4.6234,0,0,0,0,0,0,4.6321,4.6319,4.6299,4.6305,4.6302,4.6281,4.6279,4.6275,4.6271,4.6251,4.6247,4.6259,4.6233,4.6231,4.6231,4.6239,4.6218,4.6218,4.6232,4.6233,4.6234,4.6262,0,0,0,0,0,0,4.6322,4.6319,4.6323,4.6305,4.6302,4.63,4.6279,4.6275,4.627,4.6268,4.6251,4.6247,4.6232,4.6232,4.6231,4.6238,4.6217,4.6231,4.6232,4.6233,4.6261,4.6264,4.6267,0,0,0,0,0,4.6322,4.6332,4.6324,4.6322,4.6306,4.6301,4.6299,4.6282,4.6271,4.6275,4.6262,4.6248,4.6239,4.6232,4.623,4.6238,4.623,4.6232,4.6233,4.6259,4.6263,4.6267,0,0,0,0,0,0,4.6352,4.633,4.632,4.6324,4.6315,4.6296,4.63,4.6287,4.628,4.6278,4.6257,4.6253,4.6256,4.6247,4.624,4.6247,4.6232,4.6234,4.6253,4.6257,4.626,4.6262,4.6217,0,0,0,0,0,4.6359,4.6356,4.6337,4.6343,4.6339,4.632,4.6317,4.6305,4.6294,4.629,4.6277,4.6267,4.6262,4.6259,4.6253,4.6259,4.6255,4.6264,4.6267,4.627,4.6271,4.6273,4.6277,4.6239,4.6239,4.6239,0,0,4.6373,4.6361,4.636,4.6348,4.634,4.6337,4.6317,4.6316,4.6313,4.629,4.6289,4.6279,4.6267,4.627,4.6271,4.6263,4.6281,4.6272,4.6275,4.6274,4.6275,4.6279,4.6282,4.624,4.624,4.624,0,0,4.6397,4.6388,4.6392,4.6383,4.637,4.6358,4.6359,4.6342,4.6335,4.6334,4.6316,4.6313,4.6305,4.6296,4.6291,4.6313,4.6299,4.6312,4.6329,4.6331,4.6334,4.6336,4.6343,4.6346,4.6313,4.6313,4.6313,0,4.6417,4.6413,4.6395,4.6395,4.639,4.6368,4.6371,4.6364,4.635,4.6347,4.6338,4.6327,4.6317,4.6318,4.6323,4.632,4.632,4.6313,4.6335,4.6337,4.6339,4.6346,4.6349,4.6314,4.6314,4.6314,4.6314,0,4.6437,4.6434,4.6439,4.6425,4.6421,4.6423,4.6405,4.6402,4.6391,4.6379,4.6379,4.6366,4.6357,4.6356,4.6345,4.6355,4.6351,4.6339,4.6324,4.6345,4.635,4.6353,4.6317,4.6316,4.6316,4.6315,0,0,4.6478,4.6455,4.6457,4.6451,4.6435,4.6433,4.6433,4.6424,4.6423,4.6414,4.6413,4.6407,4.6396,4.639,4.6377,4.6379,4.6396,4.6367,4.6366,4.6372,4.6406,4.6414,4.6417,4.6387,4.6388,4.6388,4.6407,0,4.6499,4.6498,4.6482,4.6486,4.6483,4.6463,4.6464,4.6454,4.6443,4.6439,4.6427,4.6423,4.6409,4.6405,4.6407,4.6394,4.6403,4.6392,4.6386,4.6386,4.6389,4.642,4.6429,4.6447,4.6409,4.6409,4.641,0,4.6523,4.6516,4.6519,4.6503,4.6501,4.6502,4.6493,4.6489,4.6478,4.647,4.6463,4.6449,4.6448,4.6434,4.6432,4.6425,4.6422,4.6415,4.6416,4.6414,4.6398,4.6419,4.6453,4.6456,4.6413,4.6413,4.6412,0,4.6552,4.6543,4.6543,4.6539,4.652,4.6521,4.6513,4.6501,4.6497,4.6489,4.6486,4.6478,4.6473,4.6467,4.6451,4.6443,4.6451,4.6436,4.6443,4.6444,4.6445,4.6445,4.6479,4.6445,4.6445,4.6444,4.6444,0,4.6576,4.6579,4.6556,4.6556,4.6559,4.6541,4.6544,4.6534,4.6523,4.6521,4.6504,4.6502,4.6481,4.6477,4.6465,4.6464,4.6463,4.6456,4.6452,4.6457,4.6458,4.6454,4.6452,4.6445,4.6445,4.6445,4.6445,0,4.6608,4.6593,4.6592,4.6575,4.6571,4.6573,4.6558,4.6558,4.6547,4.6544,4.6543,4.6525,4.6519,4.6503,4.6493,4.6484,4.6487,4.6481,4.6491,4.6489,4.6497,4.6496,4.6529,4.6532,4.6496,4.6497,4.6497,0,4.6624,4.6625,4.6609,4.6606,4.6599,4.6596,4.6591,4.6574,4.657,4.6557,4.6558,4.6551,4.6545,4.6536,4.6522,4.6514,4.6507,4.6519,4.6506,4.6511,4.6507,4.6507,4.6506,4.6522,4.6522,4.6523,4.6523,0,4.6654,4.6646,4.6641,4.6633,4.6629,4.6622,4.6614,4.6613,4.6593,4.6589,4.6584,4.6579,4.6569,4.6562,4.6552,4.6543,4.653,4.6528,4.6529,4.6533,4.6539,4.6535,4.6498,4.6527,4.6526,4.6526,4.6526,4.6526,4.6677,4.6678,4.6666,4.6661,4.6653,4.6646,4.6645,4.6633,4.6628,4.6619,4.6609,4.6604,4.6592,4.6578,4.657,4.6566,4.6559,4.6561,4.6561,4.6562,4.6564,4.654,4.6564,4.6564,4.6564,4.6564,4.6564,0,4.6706,4.6697,4.6693,4.6682,4.6678,4.6666,4.6657,4.6654,4.665,4.6641,4.6635,4.6628,4.6621,4.6607,4.6598,4.6598,4.6591,4.6596,4.6596,4.6594,4.6571,4.657,4.6601,4.6601,4.6601,4.6601,4.6601,4.6601,4.672,4.672,4.6711,4.6707,4.6699,4.6694,4.669,4.6683,4.6675,4.6669,4.6663,4.6654,4.6642,4.6633,4.6626,4.6622,4.662,4.6626,4.662,4.6599,4.6595,4.6592,4.6591,4.6626,4.6626,4.6643,4.6643,4.6643]}]]